Probability
0 0 0 0 0 0 0 0 0 0 2 7 9 9 7 6 5 2 0 0 0 0 0 0 0 0 0 0 0 0 0 0 0 0 0 0 0 0 0 0 0 0 0 0
0 0 0 0 0 0 0 0 0 1 5 9 12 9 6 5 4 2 0 0 0 0 0 0 0 0 0 0 0 0 0 0 0 0 0 0 0 0 0 0 0 0 0 0
0 0 0 0 0 0 0 0 0 2 7 13 14 9 5 3 3 2 1 0 0 0 0 0 0 0 0 0 0 0 0 0 0 0 0 0 0 0 0 0 0 0 0 0
0 0 0 0 0 0 0 0 1 3 9 15 14 8 4 3 3 3 2 1 0 0 0 0 0 0 0 0 0 0 0 0 0 0 0 0 0 0 0 0 0 0 0 0
0 0 0 0 0 0 0 0 2 5 10 13 10 6 4 4 4 3 3 1 0 0 0 0 0 0 0 0 0 0 0 0 0 0 0 0 0 0 0 0 0 0 0 0
0 0 0 0 0 0 0 1 3 5 7 7 6 5 5 5 4 3 3 2 1 0 0 0 0 0 0 0 0 0 0 0 0 0 0 0 0 0 0 0 0 0 0 0
0 0 0 0 0 1 2 3 5 5 4 4 5 5 5 5 4 3 3 2 1 0 0 0 0 0 0 0 0 0 0 0 0 0 0 0 0 0 0 0 0 0 0 0
0 1 2 2 2 3 4 5 6 6 5 5 4 4 4 3 3 3 3 2 1 0 0 0 0 0 0 0 0 0 0 0 0 0 0 0 0 0 0 0 0 0 0 0
1 3 4 4 4 4 4 5 5 5 4 2 2 1 1 1 2 3 2 1 0 0 0 0 0 0 0 0 0 0 0 0 0 0 0 0 0 0 0 0 0 0 0 0
2 3 4 3 2 2 2 2 2 1 1 0 0 0 0 0 1 2 1 0 0 0 0 0 0 0 0 0 0 0 0 0 0 0 0 0 0 0 0 0 0 0 0 0
2 4 2 1 0 0 0 0 0 0 0 0 0 0 0 0 0 0 0 0 0 0 0 0 0 0 0 0 0 0 0 0 0 0 0 0 0 0 0 0 0 0 0 0
3 4 2 0 0 0 0 0 0 0 0 0 0 0 0 0 0 0 0 0 0 0 0 0 0 0 0 0 0 0 0 0 0 0 0 0 0 0 0 0 0 0 0 0
5 4 2 1 0 0 0 0 0 0 0 0 0 0 0 0 0 0 0 0 0 0 0 0 0 0 0 0 0 0 0 0 0 0 0 0 0 0 0 0 0 0 0 0
4 3 2 1 0 0 0 0 0 0 0 0 0 0 0 0 0 0 0 0 0 0 0 0 0 0 0 0 0 0 0 0 0 0 0 0 0 0 0 0 0 0 0 0
1 1 2 2 1 0 0 0 0 0 0 0 0 0 0 0 0 0 0 0 0 0 0 0 0 0 0 0 0 0 0 0 0 0 0 0 0 0 0 0 0 0 0 0
0 0 1 2 1 0 0 0 0 0 0 0 0 0 0 0 0 0 0 0 0 0 0 0 0 0 0 0 0 0 0 0 0 0 0 0 0 0 0 0 0 0 0 0
0 0 1 2 1 0 0 0 0 0 0 0 0 0 0 0 0 0 0 0 0 0 0 0 0 0 0 0 0 0 0 0 0 0 0 0 0 0 0 0 0 0 0 0
0 0 1 1 1 0 0 0 0 0 0 0 0 0 0 0 0 0 0 0 0 0 0 0 0 0 0 0 0 0 0 0 0 0 0 0 0 0 0 0 0 0 0 0
0 0 0 0 0 0 0 0 0 0 0 0 0 0 0 0 0 0 0 0 0 0 0 0 0 0 0 0 0 0 0 0 0 0 0 0 0 0 0 0 0 0 0 0
0 0 0 0 0 0 0 0 0 0 0 0 0 0 0 0 0 0 0 0 0 0 0 0 0 0 0 0 0 0 0 0 0 0 0 0 0 0 0 0 0 0 0 0
0 0 0 0 0 0 0 0 0 0 0 0 0 0 0 0 0 0 0 0 0 0 0 0 0 0 0 0 0 0 0 0 0 0 0 0 0 0 0 0 0 0 0 0
0 0 0 0 0 0 0 0 0 0 0 0 0 0 0 0 0 0 0 0 0 0 0 0 0 0 0 0 0 0 0 0 0 0 0 0 0 0 0 0 0 0 0 0
0 0 0 1 1 1 0 0 0 0 0 0 0 0 0 0 0 0 0 0 0 0 0 0 0 0 0 0 0 0 0 0 0 0 0 0 0 0 0 0 0 0 0 0
1 0 1 2 4 2 1 0 0 0 0 0 0 0 0 0 0 0 0 0 0 0 0 0 0 0 0 0 0 0 0 0 0 0 0 0 0 0 0 0 0 0 0 0
3 2 2 4 6 4 1 0 0 0 0 0 0 0 0 0 0 0 0 0 0 0 0 0 0 0 0 0 0 0 0 0 0 0 0 0 0 0 0 0 0 0 0 0
7 5 4 5 5 4 1 0 0 0 0 0 0 0 0 0 0 0 0 0 0 0 0 0 0 0 0 0 0 0 0 0 0 0 0 0 0 0 0 0 0 0 0 0
9 8 7 5 3 2 1 0 0 0 0 0 0 0 0 0 0 0 0 0 0 0 0 0 0 0 0 0 0 0 0 0 0 0 0 0 0 0 0 0 0 0 0 0
Wind_Speed
9 8 8 7 5 4 4 5 5 3 4 8 9 10 12 12 11 11 10 9 8 8 7 7 7 7 8 8 7 7 8 8 8 7 6 6 6 6 6 6 6 5 5 6
8 7 7 6 4 4 4 5 4 4 7 10 11 11 11 11 11 11 10 9 9 8 9 8 8 8 8 8 7 7 7 7 7 6 6 6 5 5 5 5 5 5 5 7
8 7 6 4 3 3 4 6 5 4 8 11 11 10 10 10 10 10 10 10 9 9 9 8 8 8 7 7 6 6 6 6 6 5 5 4 5 5 4 4 4 4 5 6
6 6 6 2 4 5 5 6 7 8 10 10 11 10 8 8 9 10 10 10 9 9 9 8 8 7 7 6 5 5 5 5 5 4 5 5 5 4 4 3 3 4 5 6
4 5 1 3 3 4 3 5 7 10 11 13 14 12 8 7 8 9 10 9 8 8 9 8 7 7 6 5 5 5 5 5 5 5 5 5 4 4 3 3 3 3 4 5
6 6 2 3 4 3 2 5 8 10 10 11 10 5 6 8 10 10 10 9 9 9 9 8 6 6 5 5 5 5 5 5 4 4 4 4 4 3 3 2 3 4 5 5
7 5 3 4 2 2 1 5 7 8 9 8 5 6 12 12 12 11 11 10 10 9 8 7 6 5 5 5 5 4 4 4 4 4 3 4 3 2 2 2 3 4 4 4
3 2 3 5 3 5 7 8 9 10 11 13 14 15 14 13 13 12 11 11 10 9 8 6 5 5 5 5 5 4 4 4 4 3 3 4 3 2 2 2 3 3 3 4
4 6 8 9 10 10 9 10 11 12 14 15 15 15 14 13 12 11 11 10 9 9 8 6 5 5 6 5 4 4 4 4 3 4 3 3 2 2 2 1 1 2 3 3
7 10 10 10 11 11 11 12 13 14 15 15 15 15 14 12 11 11 10 9 8 9 8 7 5 6 5 5 4 4 4 4 3 3 3 2 2 3 4 4 4 3 3 3
8 11 11 10 11 12 13 15 15 15 15 15 16 15 14 12 11 10 10 8 8 8 7 7 6 6 5 5 4 3 3 3 3 3 4 3 5 5 6 6 5 5 5 4
5 10 8 12 12 14 14 15 15 15 15 15 14 15 13 11 10 10 10 9 8 7 7 7 7 6 5 5 4 3 3 2 2 3 3 4 5 5 8 6 6 8 7 5
10 12 14 15 15 15 14 15 15 15 15 15 14 14 13 11 10 10 10 10 9 8 8 7 6 6 6 5 4 2 2 1 1 2 2 3 4 4 4 3 2 2 3 3
15 16 16 15 15 15 16 16 16 15 15 14 13 13 12 12 11 11 10 9 9 8 8 7 7 6 5 5 4 2 2 2 1 1 1 2 2 3 4 4 4 3 3 4
12 12 15 16 16 16 16 16 16 15 15 14 13 13 13 12 11 11 10 9 8 8 8 7 7 6 5 4 3 2 1 1 1 1 1 2 2 2 3 3 3 3 5 4
14 16 17 17 17 17 17 17 15 15 15 14 13 13 13 12 11 11 10 9 8 7 7 7 6 6 5 4 3 2 2 1 1 2 1 2 1 1 2 2 2 2 3 3
17 17 17 17 17 17 16 15 15 15 15 14 14 14 13 13 12 11 9 8 7 7 6 6 6 6 5 4 3 2 3 3 4 4 2 1 1 1 1 1 1 2 3 3
15 16 16 17 16 16 16 16 15 15 15 15 15 14 13 12 12 11 10 9 8 7 6 6 5 4 4 4 3 2 2 2 2 2 1 2 1 1 1 1 1 2 4 5
15 16 17 16 16 15 15 15 15 15 15 15 14 13 12 12 11 11 10 9 9 8 6 5 3 3 4 2 2 3 3 3 2 2 2 3 2 1 1 1 1 1 1 3
16 16 17 17 17 16 15 15 15 15 14 15 14 13 12 12 11 11 10 8 7 6 7 7 6 5 5 4 4 5 4 3 3 3 3 3 2 1 1 1 1 1 1 1
17 17 17 17 16 16 16 16 15 15 15 15 14 13 12 12 11 10 9 8 7 7 7 7 5 5 4 3 5 6 5 3 3 3 2 2 1 1 1 1 1 1 1 1
16 16 17 16 16 15 15 14 14 15 15 14 14 13 13 12 11 10 8 6 8 8 7 7 7 4 3 3 6 6 4 3 3 2 2 1 1 1 1 1 1 1 1 1
14 15 15 16 16 15 15 14 15 14 14 14 14 13 13 11 9 9 8 7 8 9 7 6 6 7 4 5 7 5 3 3 3 2 2 2 2 2 1 1 1 1 1 1
14 14 14 15 15 15 15 15 14 12 13 13 13 13 11 9 8 8 7 9 10 11 7 6 10 9 6 6 7 6 4 4 4 3 3 3 3 2 2 2 2 2 2 3
14 14 15 15 15 13 14 14 14 13 13 11 13 13 11 9 8 8 8 10 12 11 8 9 11 10 7 8 8 7 4 2 2 3 2 2 2 2 2 2 2 2 2 2
13 12 12 12 10 10 12 12 11 11 11 11 11 11 10 9 9 8 8 11 14 11 9 9 10 9 9 9 9 7 5 4 5 5 4 3 4 4 2 2 3 3 2 2
13 11 10 11 12 12 12 12 12 12 12 11 11 11 11 10 9 9 10 10 11 11 10 9 10 10 10 10 9 7 6 6 5 4 4 4 4 4 3 3 3 3 3 3
Wind_Direction
254 240 247 269 300 323 323 325 333 23 130 143 135 132 130 132 134 134 130 123 117 114 109 105 100 96 93 89 81 78 81 81 78 75 71 68 66 63 59 57 61 61 64 64
281 269 268 280 298 308 321 341 8 69 92 110 116 120 126 133 138 138 137 131 128 125 121 118 114 107 100 95 90 86 84 83 83 83 76 73 75 72 66 63 61 62 66 67
289 294 290 290 317 342 359 23 24 54 108 124 124 127 135 141 144 144 142 137 136 131 127 124 119 114 110 107 104 97 94 93 92 92 86 80 81 78 73 75 77 77 80 82
279 292 281 80 50 48 45 55 73 97 116 119 119 116 115 131 139 141 141 140 136 131 127 122 121 120 116 115 116 113 108 101 94 88 83 82 84 79 74 70 72 76 81 83
281 276 263 87 59 46 45 68 87 105 109 112 117 115 105 115 121 129 131 131 128 127 127 128 129 128 126 125 121 116 110 103 97 87 85 86 83 79 81 84 80 82 84 85
275 291 347 95 77 61 70 96 89 110 124 134 151 152 132 126 118 117 121 125 127 127 126 128 127 130 131 122 111 107 104 101 100 99 96 94 88 84 86 94 92 89 89 89
260 280 79 71 47 295 334 101 106 117 128 136 129 97 123 126 121 120 123 126 127 127 126 125 126 129 128 119 112 108 106 106 103 97 97 97 88 88 96 92 89 91 99 97
267 287 80 22 23 52 96 108 107 108 109 108 106 111 119 121 122 123 125 127 127 125 122 123 128 133 122 114 115 114 109 107 104 97 89 93 92 91 95 98 107 108 109 110
50 78 83 67 82 96 107 109 111 112 115 118 119 122 123 124 125 126 128 128 128 127 125 127 132 130 123 118 113 109 103 100 102 100 90 99 106 106 111 116 101 114 128 128
114 113 106 99 101 102 105 110 113 117 121 123 124 125 125 126 127 129 129 130 132 132 131 131 134 128 125 128 127 122 112 107 107 111 106 88 63 62 55 40 40 51 66 84
113 122 119 113 110 110 109 111 114 118 121 124 126 128 128 129 131 132 131 133 133 133 133 133 133 133 135 134 131 121 119 119 112 101 97 86 70 50 61 57 50 40 35 49
126 143 136 127 123 121 122 121 122 123 121 125 129 129 129 130 132 133 134 135 136 139 140 138 137 138 140 141 138 136 137 137 133 130 128 124 117 96 60 80 83 72 60 59
113 124 118 125 127 127 126 126 126 126 128 129 131 132 132 132 136 137 140 141 144 145 140 138 138 139 138 133 126 123 123 117 100 110 126 134 136 136 134 112 82 74 70 65
111 115 123 130 129 129 128 126 126 126 129 132 135 135 134 135 137 139 141 144 146 143 140 140 139 134 135 135 139 143 136 122 140 122 125 142 147 152 155 161 166 171 194 222
128 129 131 131 130 131 131 132 133 133 135 135 137 138 139 140 141 141 142 144 143 143 142 142 138 132 137 140 144 150 136 119 131 140 178 158 163 165 165 166 162 159 158 184
131 130 134 137 139 141 142 144 142 142 141 140 141 142 142 140 140 141 144 146 146 144 141 142 139 141 149 152 153 150 121 74 281 250 209 177 172 150 138 144 153 155 159 163
145 147 149 148 149 150 150 149 147 146 145 144 143 144 144 143 143 144 145 144 142 141 142 143 149 160 165 170 200 198 171 173 214 242 224 134 92 91 109 135 153 152 126 115
155 154 155 154 154 153 152 150 149 148 147 146 146 148 150 150 150 149 148 147 147 146 147 155 162 179 177 180 210 228 208 197 197 196 140 104 112 183 171 162 157 148 145 160
153 153 154 155 154 153 152 150 150 150 149 151 153 154 154 153 151 152 154 156 159 159 160 154 162 205 181 181 269 236 219 207 189 163 128 141 216 218 172 187 162 129 149 156
153 154 155 155 154 153 151 151 151 151 152 154 154 155 156 156 157 159 163 170 174 170 164 165 186 207 202 193 238 263 239 217 196 172 178 188 197 181 192 219 194 166 166 157
156 157 158 156 154 153 153 153 153 154 155 158 159 160 159 160 164 165 174 174 169 169 162 164 200 214 215 205 217 252 243 229 213 191 185 182 182 209 215 215 201 169 189 218
158 159 158 155 153 152 152 153 156 157 158 162 164 162 162 167 171 175 185 174 165 163 177 187 201 204 198 248 253 250 233 235 236 202 165 157 203 234 225 234 234 218 203 210
158 158 157 156 155 152 153 158 160 162 165 167 168 167 170 175 178 181 178 173 172 174 200 197 166 157 177 242 264 265 253 254 256 226 180 184 210 220 217 223 235 241 224 231
156 157 156 154 153 156 160 163 162 165 169 171 171 172 176 179 186 193 177 168 166 168 194 163 159 169 201 245 260 261 244 238 240 239 224 214 214 210 208 212 229 237 230 234
159 159 158 158 161 163 164 164 164 168 173 175 175 177 184 190 190 186 170 165 163 173 185 176 181 187 217 243 252 256 258 275 303 319 307 294 277 254 225 218 226 244 251 243
160 164 162 167 165 163 166 169 172 175 178 178 178 180 188 192 192 179 170 173 177 190 202 184 187 201 224 238 245 250 244 226 224 232 247 259 269 275 267 253 251 248 244 237
165 163 163 172 172 174 174 176 178 179 182 182 182 181 186 191 190 186 186 183 180 189 209 207 197 202 217 228 236 239 243 245 246 245 245 246 253 260 257 246 250 249 245 238